Regional Weather Roundup
Issued by NWS

Home | Current Version | Previous Version | Graphics & Text | Print | Product List | Glossary On
Versions: 1 2 3 4 5 6 7 8 9 10 11 12 13 14 15 16 17 18 19 20 21 22 23 24 25 26 27 28 29 30 31 32 33 34 35 36 37 38 39 40 41 42 43 44 45 46 47 48 49 50
000
ASUS45 KCYS 071110
RWRWY

WYOMING REGIONAL WEATHER ROUNDUP
NATIONAL WEATHER SERVICE CHEYENNE WY
500 AM MDT TUE JUL 07 2015

NOTE:  "FAIR" INDICATES FEW OR NO CLOUDS BELOW 12,000 FEET
WITH NO SIGNIFICANT WEATHER AND/OR OBSTRUCTIONS TO VISIBILITY.

WYZ001-071200-
YELLOWSTONE NATIONAL PARK

CITY           SKY/WX    TMP DP  RH WIND       PRES   REMARKS
LK YELLOWSTONE   N/A     46  44  93 NW3       30.31F
W YELLOWSTONE  NOT AVBL

$$
WYZ002>013-054>058-071-098>099-071200-
NORTHERN WYOMING

CITY           SKY/WX    TMP DP  RH WIND       PRES   REMARKS
JACKSON        FAIR      48  48 100 CALM      30.23F
CODY           CLOUDY    55  52  88 CALM      30.14F
GREYBULL       FAIR      58  49  72 CALM      30.09F
WORLAND        FAIR      61  53  75 S5        30.09F
SHERIDAN       FAIR      48  46  93 SW5       30.10F FOG
BUFFALO        FAIR      52  46  80 SW6       30.14F
GILLETTE       FAIR      54  52  93 S12       30.14F FOG
HULETT         FAIR      59  52  77 S8        30.17S HAZE
NEWCASTLE      CLOUDY    59  50  72 SE12      30.20S

$$
WYZ014>020-022>026-101>103-071200-
CENTRAL WYOMING

CITY           SKY/WX    TMP DP  RH WIND       PRES   REMARKS
BIG PINEY      MOCLDY    52  50  93 NW3       30.26F
PINEDALE       CLOUDY    52  52 100 NW5       30.27S
DUBOIS         FAIR      48  45  87 NW10      30.25F
LANDER         CLOUDY    56  51  84 W6        30.16F
RIVERTON       CLOUDY    58  53  84 W3        30.17F
CASPER         FAIR      54  51  90 E3        30.17F FOG
DOUGLAS        FAIR      55  53  93 SE7       30.18F FOG

$$
WYZ021-027>030-104>119-071200-
SOUTHERN WYOMING

CITY           SKY/WX    TMP DP  RH WIND       PRES   REMARKS
EVANSTON       FAIR      53  49  86 SE7       30.25S
KEMMERER       FAIR      46  45  93 N6        30.27R
FORT BRIDGER   CLOUDY    54  54 100 CALM      30.28S FOG
ROCK SPRINGS   LGT RAIN  54  52  93 NE5       30.23F FOG
DIXON          PTSUNNY   56  53  88 CALM      30.23S
RAWLINS        CLOUDY    55  52  89 NE7       30.22F
SARATOGA       FAIR      54  52  94 SW7       30.24S
LARAMIE        LGT RAIN  51  50  96 SE16      30.27S
CHEYENNE       CLOUDY    53  52  96 S13       30.26S FOG
TORRINGTON     CLOUDY    60  55  83 E6        30.18F HAZE
PINE BLUFFS    CLOUDY    55  52  88 S8        30.25S

$$


USA.gov is the U.S. government's official web portal to all federal, state and local government web resources and services.